Time_in_sec,Mx,My,Mz
1326900093.52061582,0.39591253,0.51581728,-0.47244209
1326900093.56866741,0.39688450,0.51665711,-0.47341108
1326900093.62135696,0.39593041,0.51619667,-0.47434893
1326900093.66870284,0.39745790,0.51508296,-0.47260657
1326900093.72063851,0.39600989,0.51512617,-0.47535306
1326900093.76950669,0.39633527,0.51499087,-0.47419128
1326900093.82060575,0.39719781,0.51702678,-0.47466668
1326900093.86949253,0.39766616,0.51508981,-0.47348431
1326900093.92155838,0.39475435,0.51465333,-0.47478321
1326900093.97183084,0.39776841,0.51485389,-0.47398508
1326900094.01878071,0.39658788,0.51669037,-0.47634870
1326900094.06857729,0.39792982,0.51544565,-0.47334543
1326900094.12100959,0.39575729,0.51620638,-0.47512051
1326900094.16951632,0.39776117,0.51485527,-0.47411248
1326900094.22053623,0.39755192,0.51678944,-0.47528070
1326900094.26856399,0.39710706,0.51474369,-0.47427440
1326900094.31762147,0.39697585,0.51594388,-0.47416309
1326900094.36953259,0.39776573,0.51521391,-0.47398779
1326900094.42057014,0.39664689,0.51655930,-0.47532848
1326900094.46945357,0.39762792,0.51437801,-0.47424337
1326900094.52055478,0.39684606,0.51402777,-0.47441059
1326900094.56948709,0.39718944,0.51523066,-0.47503543
1326900094.62132406,0.39851147,0.51748854,-0.47421724
1326900094.66854382,0.39545104,0.51391780,-0.47397789
1326900094.72153854,0.39683154,0.51681036,-0.47659028
1326900094.76955366,0.39604342,0.51452053,-0.47483891
1326900094.82063413,0.39662620,0.51836097,-0.47546941
1326900094.86873651,0.39736894,0.51533955,-0.47413734
1326900094.92050958,0.39766884,0.51472974,-0.47348160
1326900094.96949720,0.39673194,0.51390642,-0.47416192
1326900095.02050447,0.39690766,0.51535767,-0.47543272
1326900095.06857038,0.39590046,0.51632220,-0.47485951
1326900095.12157989,0.39654440,0.51487768,-0.47506812
1326900095.16954613,0.39533961,0.51343638,-0.47372657
1326900095.22062182,0.39851463,0.51595318,-0.47661933
1326900095.26905584,0.39727840,0.51497400,-0.47350463
1326900095.32053542,0.39814162,0.51497239,-0.47421956
1326900095.36951447,0.39642501,0.51643521,-0.47470465
1326900095.42053437,0.39584592,0.51585323,-0.47587523
1326900095.46853971,0.39772248,0.51531875,-0.47246680
1326900095.52149916,0.39513752,0.51441038,-0.47488758
1326900095.56960773,0.39625734,0.51668358,-0.47535062
1326900095.62065053,0.39773846,0.51775920,-0.47642049
1326900095.66951871,0.39757830,0.51436418,-0.47284889
1326900095.72065878,0.39538911,0.51527119,-0.47716609
1326900095.76950502,0.39680716,0.51535356,-0.47493014
1326900095.82108641,0.39678559,0.51727521,-0.47507197
1326900095.86851454,0.39708090,0.51630670,-0.47454095
1326900095.92152905,0.39705887,0.51439333,-0.47516361
1326900095.96955562,0.39727831,0.51401526,-0.47362486
1326900096.02063894,0.39730197,0.51750958,-0.47504544
1326900096.06852698,0.39723125,0.51546240,-0.47427273
1326900096.12065506,0.39670354,0.51688480,-0.47202548
1326900096.16962481,0.39857599,0.51481634,-0.47114655
1326900096.22053623,0.39689368,0.51737446,-0.47316167
1326900096.26866388,0.39757058,0.51554090,-0.47057152
1326900096.32169795,0.39760569,0.51555747,-0.47222084
1326900096.36864710,0.39645118,0.51710278,-0.46962765
1326900096.42066503,0.39813682,0.51770657,-0.47169906
1326900096.46874571,0.39807254,0.51395702,-0.46875477
1326900096.52066636,0.39616737,0.51555228,-0.47026718
1326900096.56951618,0.39879930,0.51683450,-0.46924356
1326900096.62074184,0.39677465,0.51624876,-0.46858788
1326900096.66851234,0.39728031,0.51514357,-0.46664730
1326900096.72320247,0.39627522,0.51651376,-0.47052214
1326900096.76914620,0.39672479,0.51431739,-0.46743381
1326900096.82067013,0.39478618,0.51747710,-0.46934015
1326900096.86854076,0.39748406,0.51575053,-0.46752954
1326900096.91759253,0.39769945,0.51479721,-0.46840009
1326900096.96861219,0.39728221,0.51586229,-0.46652529
1326900097.02063704,0.39703920,0.51648456,-0.46844810
1326900097.06961250,0.39776328,0.51694232,-0.46701473
1326900097.12152600,0.39803857,0.51573795,-0.46686414
1326900097.17107511,0.39794981,0.51513237,-0.46622965
1326900097.22062278,0.39759448,0.51817298,-0.46982685
1326900097.26951909,0.39804617,0.51583308,-0.46445125
1326900097.31790209,0.39585900,0.51563781,-0.46660137
1326900097.36154675,0.39676872,0.51718539,-0.46630868
1326900097.42155576,0.39718163,0.50988907,-0.46902853
1326900097.46858621,0.39610255,0.51479900,-0.46696314
1326900097.52151394,0.39553285,0.51407212,-0.46571901
1326900097.56933355,0.39785224,0.51668572,-0.46548396
1326900097.62056184,0.39539903,0.51659119,-0.46549019
1326900097.66952372,0.39632833,0.51453960,-0.46529788
1326900097.72056532,0.39756489,0.51561528,-0.46612710
1326900097.76951694,0.39678603,0.51500160,-0.46400610
1326900097.82064509,0.39717266,0.51609963,-0.46615192
1326900097.86862350,0.39753458,0.51787490,-0.46411264
1326900097.92155647,0.39480186,0.51371229,-0.46499431
1326900097.96982145,0.39699975,0.51524711,-0.46475822
1326900098.02220821,0.39829519,0.51801270,-0.46661228
1326900098.07253814,0.39794210,0.51630902,-0.46395227
1326900098.12154293,0.39594159,0.51526254,-0.46519712
1326900098.16950512,0.39541793,0.51502955,-0.46535105
1326900098.22052145,0.39705586,0.51633829,-0.46590599
1326900098.26852918,0.39839053,0.51509494,-0.46303013
1326900098.32194352,0.39793628,0.51597387,-0.46636337
1326900098.36919379,0.39723703,0.51524842,-0.46512631
1326900098.42111182,0.39799899,0.51632148,-0.46521935
1326900098.46950746,0.39802894,0.51619589,-0.46470878
1326900098.52165365,0.39708301,0.51561403,-0.46551833
1326900098.57160449,0.39673707,0.51572996,-0.46477598
1326900098.62064314,0.39583653,0.51767951,-0.46674410
1326900098.66852379,0.39709833,0.51453251,-0.46538281
1326900098.72156048,0.39691436,0.51502365,-0.46628541
1326900098.77191830,0.39716440,0.51526225,-0.46640044
1326900098.82155442,0.39780486,0.51803631,-0.46841732
1326900098.86891103,0.39787582,0.51644152,-0.46509990
1326900098.92058706,0.39610064,0.51408029,-0.46708515
1326900098.96951628,0.39699382,0.51395315,-0.46728954
1326900099.02093101,0.39626673,0.51598948,-0.46620059
1326900099.06955266,0.39769453,0.51657265,-0.46599981
1326900099.12152648,0.39696509,0.51683497,-0.46743855
1326900099.16852975,0.39749256,0.51572567,-0.46511576
1326900099.22157216,0.39542139,0.51637048,-0.46739250
1326900099.27353764,0.39689612,0.51454771,-0.46666405
1326900099.32065225,0.39688271,0.51634800,-0.46667755
1326900099.36950564,0.39771712,0.51548970,-0.46573687
1326900099.42064595,0.39610824,0.51695520,-0.46659714
1326900099.46889901,0.39692172,0.51598102,-0.46603778
1326900099.52152324,0.39735195,0.51429099,-0.46549428
1326900099.56964993,0.39708391,0.51549399,-0.46551743
1326900099.62050056,0.39725068,0.51814544,-0.46679723
1326900099.66852474,0.39679587,0.51524472,-0.46465200
1326900099.72069311,0.39875194,0.51524425,-0.46657696
1326900099.76950336,0.39572534,0.51598150,-0.46522358
1326900099.82052183,0.39685386,0.51705426,-0.46567753
1326900099.86863351,0.39694840,0.51799482,-0.46390131
1326900099.91752720,0.39787492,0.51656151,-0.46510082
1326900099.96853924,0.39615652,0.51548457,-0.46366286
1326900100.02164245,0.39768267,0.51621532,-0.46625191
1326900100.06848741,0.39696455,0.51705152,-0.46515399
1326900100.12050271,0.39663124,0.51644599,-0.46427882
1326900100.16951203,0.39731249,0.51583326,-0.46372926
1326900100.21754050,0.39650324,0.51706958,-0.46644938
1326900100.26948071,0.39709845,0.51549125,-0.46526262
1326900100.31958818,0.39663222,0.51728469,-0.46415770
1326900100.36856031,0.39804235,0.51717538,-0.46662012
1326900100.42150688,0.39820543,0.51656836,-0.46609887
1326900100.46858954,0.39815938,0.51607448,-0.46470082
1326900100.52056670,0.39406928,0.51550996,-0.46403098
1326900100.56949782,0.39859128,0.51596540,-0.46620056
1326900100.62140465,0.39743063,0.51429927,-0.46637908
1326900100.66856170,0.39722240,0.51429242,-0.46550134
1326900100.72152543,0.39746693,0.51681411,-0.46627727
1326900100.76857758,0.39651772,0.51489174,-0.46504563
1326900100.82126355,0.39716959,0.51514673,-0.46717054
1326900100.86924052,0.39850384,0.51572424,-0.46633995
1326900100.92126036,0.39745060,0.51427776,-0.46460941
1326900100.96952677,0.39692897,0.51476336,-0.46464133
1326900101.02123904,0.39714971,0.51586944,-0.46743071
1326900101.06838775,0.39850932,0.51596284,-0.46621436
1326900101.12175894,0.39614174,0.51599520,-0.46697870
1326900101.16855979,0.39699590,0.51537293,-0.46565786
1326900101.22121072,0.39830640,0.51705664,-0.46737602
1326900101.26870918,0.39746881,0.51475352,-0.46423087
1326900101.32111979,0.39720333,0.51645833,-0.46641612
1326900101.36951351,0.39791417,0.51658231,-0.46752104
1326900101.42113304,0.39794323,0.51657677,-0.46701148
1326900101.46855974,0.39758372,0.51657546,-0.46652317
1326900101.52151036,0.39622676,0.51612210,-0.46773684
1326900101.56953692,0.39772227,0.51633269,-0.46638691
1326900101.62164927,0.39610183,0.51648211,-0.46761924
1326900101.67252612,0.39476877,0.51588112,-0.46616393
1326900101.72159219,0.39687684,0.51661706,-0.46986356
1326900101.76894164,0.39767331,0.51428181,-0.46523219
1326900101.82149816,0.39656562,0.51792461,-0.46836606
1326900101.86865234,0.39617327,0.51649177,-0.46863124
1326900101.92376971,0.39648142,0.51489866,-0.46568257
1326900101.96866345,0.39848295,0.51560843,-0.46672121
1326900102.02066302,0.39723456,0.51685834,-0.47035366
1326900102.06857371,0.39738873,0.51563078,-0.46779692
1326900102.12062716,0.39581287,0.51661044,-0.46814382
1326900102.16949630,0.39848205,0.51572841,-0.46672210
1326900102.22053647,0.39870101,0.51707447,-0.46951330
1326900102.26864028,0.39749625,0.51371646,-0.46841237
1326900102.32083035,0.39646930,0.51722407,-0.47014406
1326900102.36856747,0.39853907,0.51669937,-0.46786872
1326900102.42153287,0.39601827,0.51601875,-0.46914428
1326900102.46867490,0.39580828,0.51625186,-0.46826851
1326900102.51767564,0.39645109,0.51674825,-0.47052261
1326900102.56951094,0.39891100,0.51684135,-0.47038904
1326900102.62068701,0.39721188,0.51698250,-0.47073674
1326900102.66867471,0.39696476,0.51552194,-0.46845418
1326900102.72152805,0.39916366,0.51671994,-0.47050139
1326900102.76866794,0.39801621,0.51442933,-0.46826208
1326900102.81765008,0.39662835,0.51604205,-0.47203171
1326900102.86954975,0.39620319,0.51636624,-0.46812078
1326900102.92052698,0.39776632,0.51514935,-0.46802688
1326900102.96949792,0.39679345,0.51529169,-0.46922380
1326900103.02062678,0.39652431,0.51651788,-0.47153285
1326900103.06809497,0.39871365,0.51635319,-0.46938050
1326900103.11752629,0.39696467,0.51734251,-0.47049883
1326900103.16868830,0.39540154,0.51578027,-0.46866831
1326900103.22063017,0.39839205,0.51696700,-0.47041827
1326900103.26939940,0.39680061,0.51433176,-0.46921659
1326900103.31840253,0.39701688,0.51603782,-0.47201049
1326900103.36949873,0.39736864,0.51721555,-0.47022191
1326900103.42052627,0.39671916,0.51650405,-0.47037929
1326900103.47090745,0.39631629,0.51564902,-0.46849048
1326900103.52152371,0.39856312,0.51528019,-0.46988904
1326900103.57209659,0.39896083,0.51599312,-0.46961841
1326900103.62064838,0.39791277,0.51746780,-0.47197175
1326900103.66940236,0.39682502,0.51578820,-0.47087634
1326900103.72062945,0.39729783,0.51698941,-0.47149399
1326900103.76954436,0.39720160,0.51446825,-0.47122738
1326900103.82159352,0.39691532,0.51701576,-0.47367373
1326900103.86937070,0.39868149,0.51566362,-0.47229794
1326900103.92155528,0.39712662,0.51493853,-0.47021896
1326900103.96863127,0.39625075,0.51652348,-0.47180179
1326900104.02157784,0.39705211,0.51701295,-0.47353926
1326900104.06952214,0.39701054,0.51591921,-0.47213697
1326900104.12062812,0.39656678,0.51749164,-0.47293422
1326900104.16949654,0.39685106,0.51604617,-0.47265449
1326900104.22062731,0.39668792,0.51569450,-0.47329581
1326900104.26964617,0.39729124,0.51495367,-0.47186083
1326900104.32152724,0.39797592,0.51664031,-0.47323224
1326900104.36957407,0.39721793,0.51700461,-0.47289523
1326900104.42053485,0.39795426,0.51760298,-0.47349420
1326900104.46851516,0.39619073,0.51581603,-0.47294286
1326900104.52051210,0.39748830,0.51534539,-0.47515437
1326900104.56949973,0.39616448,0.51642013,-0.47332951
1326900104.62100172,0.39844406,0.51652431,-0.47409475
1326900104.66868520,0.39796260,0.51661956,-0.47120112
1326900104.72152090,0.39844048,0.51700431,-0.47409832
1326900104.76951790,0.39717457,0.51615089,-0.47149476
1326900104.82117343,0.39844036,0.51604575,-0.47421852
1326900104.86920714,0.39747953,0.51568323,-0.47299856
1326900104.92081952,0.39678192,0.51462150,-0.47404495
1326900104.96969295,0.39675418,0.51556206,-0.47214842
1326900105.02084041,0.39695761,0.51607239,-0.47531548
1326900105.06959558,0.39836091,0.51711601,-0.47321460
1326900105.12148809,0.39726299,0.51665980,-0.47441411
1326900105.16857600,0.39839351,0.51663053,-0.47270146
1326900105.22057509,0.39900917,0.51785100,-0.47534314
1326900105.26955175,0.39640710,0.51570147,-0.47369212
1326900105.32052565,0.39867112,0.51496994,-0.47483319
1326900105.36970472,0.39768964,0.51640868,-0.47375414
1326900105.42153072,0.39576659,0.51656920,-0.47576493
1326900105.46970463,0.39771053,0.51652449,-0.47337288
1326900105.52154207,0.39671963,0.51532900,-0.47278357
1326900105.56966305,0.39776105,0.51641834,-0.47476617
1326900105.62168717,0.39791882,0.51748991,-0.47413024
1326900105.66950345,0.39644787,0.51509464,-0.47305068
1326900105.71754575,0.39921299,0.51663721,-0.47418055
1326900105.76956344,0.39712539,0.51496202,-0.47250485
1326900105.81754851,0.39816859,0.51581138,-0.47448564
1326900105.86956358,0.39765152,0.51665556,-0.47439289
1326900105.91753459,0.39758739,0.51664454,-0.47325346
1326900105.96855283,0.39666900,0.51447666,-0.47151047
1326900106.02063537,0.39625400,0.51594704,-0.47408316
1326900106.07046103,0.39732555,0.51604879,-0.47339052
1326900106.11780572,0.39845210,0.51544440,-0.47408664
1326900106.16951895,0.39824140,0.51493549,-0.47104698
1326900106.21755171,0.39770517,0.51724446,-0.47337827
1326900106.27183461,0.39598346,0.51568913,-0.47206441
1326900106.31758237,0.39722431,0.51712322,-0.47276875
1326900106.36856842,0.39710206,0.51712322,-0.47264844
1326900106.42056060,0.39830726,0.51652712,-0.47422919
1326900106.46853089,0.39673328,0.51544625,-0.47252968
1326900106.52154613,0.39659539,0.51365191,-0.47290543
1326900106.57029557,0.39749655,0.51618254,-0.47490591
1326900106.62108350,0.39752024,0.51689696,-0.47440174
1326900106.66852641,0.39725393,0.51412207,-0.47261885
1326900106.72191978,0.39856911,0.51712286,-0.47409216
1326900106.76957083,0.39698625,0.51542127,-0.47035703
1326900106.82240343,0.39766338,0.51701277,-0.47414079
1326900106.86858273,0.39845780,0.51760012,-0.47372067
1326900106.92018676,0.39788875,0.51387775,-0.47283643
1326900106.96949673,0.39600435,0.51580501,-0.47168314
1326900107.02062607,0.39714453,0.51809698,-0.47404984
1326900107.06874466,0.39852560,0.51531059,-0.47281185
1326900107.12151527,0.39837810,0.51675326,-0.47295713
1326900107.16954970,0.39943054,0.51649922,-0.47264394
1326900107.22165513,0.39738256,0.51701975,-0.47453713
1326900107.27251172,0.39714718,0.51495785,-0.47212270
1326900107.32063055,0.39660993,0.51642829,-0.47457507
1326900107.36951089,0.39731383,0.51665014,-0.47352239
1326900107.42053628,0.39719313,0.51449311,-0.47364065
1326900107.46911979,0.39611921,0.51484782,-0.47205102
1326900107.52151704,0.39828748,0.51542926,-0.47244474
1326900107.56899285,0.39627612,0.51603937,-0.47141600
1326900107.62052536,0.39666533,0.51677722,-0.47355869
1326900107.66953969,0.39728487,0.51483506,-0.47198734
1326900107.72062755,0.39915341,0.51698476,-0.47291645
1326900107.76949883,0.39718986,0.51506954,-0.47135925
1326900107.82053089,0.39677933,0.51594001,-0.47392747
1326900107.86965060,0.39803761,0.51614928,-0.47220954
1326900107.92198277,0.39610928,0.51520914,-0.47218111
1326900107.96965289,0.39650509,0.51520354,-0.47203249
1326900108.02065086,0.39862609,0.51531470,-0.47331434
1326900108.06887126,0.39702696,0.51663500,-0.47176021
1326900108.12151957,0.39825305,0.51615471,-0.47295970
1326900108.16953230,0.39580297,0.51474172,-0.47308338
1326900108.22051430,0.39811996,0.51663613,-0.47297040
1326900108.26964617,0.39505404,0.51486468,-0.47261718
1326900108.32164407,0.39620629,0.51665181,-0.47256699
1326900108.36853909,0.39674065,0.51640338,-0.47228211
1326900108.42065048,0.39849129,0.51699460,-0.47320664
1326900108.46850657,0.39680591,0.51543242,-0.47125581
1326900108.52177262,0.39665887,0.51570004,-0.47380537
1326900108.56951094,0.39559928,0.51691401,-0.47412574
1326900108.62153292,0.39860690,0.51677948,-0.47573841
1326900108.66963387,0.39884633,0.51481676,-0.47177500
1326900108.72174191,0.39715245,0.51605850,-0.47416192
1326900108.76852417,0.39522594,0.51487845,-0.47413167
1326900108.82164693,0.39754114,0.51701277,-0.47402048
1326900108.86979413,0.39909264,0.51735580,-0.47393826
1326900108.92062426,0.39718041,0.51425588,-0.47389364
1326900108.96949816,0.39549860,0.51499283,-0.47386366
1326900109.02057791,0.39903265,0.51664829,-0.47507936
1326900109.06919336,0.39688349,0.51642269,-0.47430617
1326900109.11750150,0.39843959,0.51712430,-0.47409925
1326900109.16936183,0.39674300,0.51316780,-0.47263998
1326900109.22057199,0.39833981,0.51786220,-0.47576067
1326900109.26849961,0.39782900,0.51508737,-0.47373715
1326900109.31884670,0.39727104,0.51557988,-0.47440600
1326900109.36950111,0.39793783,0.51688719,-0.47387096
1326900109.42150211,0.39715704,0.51641709,-0.47403723
1326900109.46953249,0.39719871,0.51569021,-0.47339487
1326900109.52294135,0.39697850,0.51618820,-0.47493422
1326900109.56946516,0.39830279,0.51712710,-0.47423372
1326900109.62056208,0.39813140,0.51593828,-0.47512349
1326900109.66935134,0.39631379,0.51473743,-0.47318244
1326900109.72156549,0.39820850,0.51810360,-0.47576955
1326900109.76975727,0.39595798,0.51521474,-0.47257036
1326900109.82051516,0.39912435,0.51699030,-0.47342601
1326900109.86867762,0.39705658,0.51641297,-0.47353476
1326900109.92152834,0.39627033,0.51570427,-0.47382659
1326900109.96863031,0.39566800,0.51450455,-0.47321603
1326900110.02053642,0.39770854,0.51762652,-0.47553948
1326900110.06905627,0.39695492,0.51643234,-0.47531816
1326900110.12052011,0.39697403,0.51678818,-0.47493872
1326900110.16975904,0.39686647,0.51592338,-0.47239882
1326900110.22115135,0.39907053,0.51726347,-0.47660542
1326900110.26918173,0.39730456,0.51497442,-0.47389194
1326900110.32151556,0.39532721,0.51658314,-0.47667786
1326900110.36993408,0.39503732,0.51683146,-0.47720337
1326900110.42053199,0.39819834,0.51654786,-0.47614002
1326900110.46958399,0.39707527,0.51571375,-0.47556046
1326900110.52051497,0.39841637,0.51523483,-0.47700766
1326900110.56992078,0.39682230,0.51573867,-0.47773314
1326900110.62101483,0.39761859,0.51704454,-0.47719103
1326900110.66868544,0.39639676,0.51500779,-0.47622740
1326900110.72151208,0.39718917,0.51669711,-0.47797388
1326900110.76903605,0.39640757,0.51452643,-0.47609639
1326900110.82064223,0.39741457,0.51634121,-0.47859395
1326900110.86863708,0.39645398,0.51789582,-0.47713363
1326900110.92464590,0.39872357,0.51558226,-0.47610450
1326900110.96970153,0.39604709,0.51646572,-0.47765362
1326900111.02062774,0.39784461,0.51647216,-0.48009521
1326900111.06860209,0.39741457,0.51634121,-0.47859395
1326900111.12154913,0.39751345,0.51572329,-0.47693342
1326900111.16855693,0.39735836,0.51429176,-0.47756663
1326900111.22156763,0.39776054,0.51718384,-0.47921595
1326900111.27285647,0.39545998,0.51600522,-0.47895220
1326900111.32152581,0.39750499,0.51574814,-0.47934669
1326900111.36950135,0.39703965,0.51646268,-0.47836131
